TimeMST,TemperatureF,Dew PointF,Humidity,Sea Level PressureIn,VisibilityMPH,Wind Direction,Wind SpeedMPH,Gust SpeedMPH,PrecipitationIn,Events,Conditions,WindDirDegrees,DateUTC
12:54 AM,35.1,19.0,52,30.02,10.0,NE,3.5,-,N/A,,Clear,40,2013-05-21 07:54:00
1:54 AM,30.9,17.1,57,30.02,10.0,Calm,Calm,-,N/A,,Clear,0,2013-05-21 08:54:00
2:54 AM,28.0,15.1,58,30.02,10.0,Calm,Calm,-,N/A,,Clear,0,2013-05-21 09:54:00
3:54 AM,28.0,17.1,63,30.01,10.0,Calm,Calm,-,N/A,,Clear,0,2013-05-21 10:54:00
4:54 AM,27.0,16.0,63,30.03,10.0,Calm,Calm,-,N/A,,Clear,0,2013-05-21 11:54:00
5:54 AM,30.0,18.0,61,30.02,10.0,Calm,Calm,-,N/A,,Clear,0,2013-05-21 12:54:00
6:54 AM,44.1,24.1,45,29.97,10.0,Calm,Calm,-,N/A,,Clear,0,2013-05-21 13:54:00
7:54 AM,55.9,27.0,33,29.94,10.0,Calm,Calm,-,N/A,,Clear,0,2013-05-21 14:54:00
8:54 AM,62.1,25.0,24,29.94,10.0,Variable,4.6,-,N/A,,Clear,0,2013-05-21 15:54:00
9:54 AM,64.0,21.9,20,29.95,10.0,Calm,Calm,-,N/A,,Clear,0,2013-05-21 16:54:00
10:54 AM,68.0,16.0,14,29.95,10.0,SW,5.8,-,N/A,,Clear,230,2013-05-21 17:54:00
11:54 AM,68.0,12.0,11,29.94,10.0,SSW,12.7,20.7,N/A,,Clear,210,2013-05-21 18:54:00
12:54 PM,72.0,3.0,7,29.93,10.0,SW,9.2,18.4,N/A,,Clear,230,2013-05-21 19:54:00
1:54 PM,72.0,5.0,7,29.94,10.0,West,9.2,19.6,N/A,,Clear,280,2013-05-21 20:54:00
2:54 PM,73.0,12.0,10,29.91,10.0,WSW,13.8,18.4,N/A,,Clear,240,2013-05-21 21:54:00
3:42 PM,73.4,12.2,10,30.06,10.0,SSW,12.7,18.4,N/A,,Partly Cloudy,210,2013-05-21 22:42:00
3:54 PM,72.0,12.9,10,29.90,10.0,SSW,8.1,18.4,N/A,,Clear,200,2013-05-21 22:54:00
4:54 PM,73.9,10.9,9,29.85,10.0,West,18.4,26.5,N/A,,Clear,260,2013-05-21 23:54:00
5:54 PM,73.0,9.0,8,29.83,10.0,West,9.2,18.4,N/A,,Clear,270,2013-05-22 00:54:00
6:54 PM,69.1,10.9,11,29.79,10.0,WSW,9.2,16.1,N/A,,Clear,250,2013-05-22 01:54:00
7:54 PM,64.0,15.1,15,29.77,10.0,WSW,6.9,-,N/A,,Clear,250,2013-05-22 02:54:00
8:54 PM,60.1,12.0,15,29.77,10.0,WSW,8.1,-,N/A,,Clear,240,2013-05-22 03:54:00
9:54 PM,55.9,10.9,17,29.81,10.0,Calm,Calm,-,N/A,,Clear,0,2013-05-22 04:54:00
10:54 PM,43.0,10.9,27,29.83,10.0,NE,4.6,-,N/A,,Clear,40,2013-05-22 05:54:00
11:54 PM,42.1,10.9,28,29.82,10.0,Calm,Calm,-,N/A,,Clear,0,2013-05-22 06:54:00